Clarksburg, WV

10:07 AM EDT on September 16, 2019 (GMT -0400)
Benedum

Weather History for KCKB - May, 2019

Change the Weather History Date:

Monday, May 6, 2019

  Actual Average Record
Temperature  
Mean Temperature 62 °F 59 °F  
Max Temperature 75 °F 71 °F 92 °F (1959)
Min Temperature 49 °F 47 °F 30 °F (1968)
Degree Days  
Heating Degree Days 3 7  
Month to date heating degree days 7 45  
Since 1 July heating degree days 4313 5107  
Cooling Degree Days 0 1  
Month to date cooling degree days 23 2  
Year to date cooling degree days 48 11  
Growing Degree Days 12 (Base 50)    
Moisture  
Dew Point 50 °F    
Average Humidity 65    
Maximum Humidity 96    
Minimum Humidity 33    
Precipitation  
Precipitation 0.00 in 0.13 in 0.98 in (2017)
Month to date precipitation 0.50 0.71  
Year to date precipitation 14.63 14.89  
Sea Level Pressure  
Sea Level Pressure 30.01 in    
Wind  
Wind Speed 2 mph (WSW)    
Max Wind Speed 9 mph    
Max Gust Speed 12 mph    
Visibility 5 miles    
Events Fog    
T = Trace of Precipitation, MM = Missing Value Source: NWS Daily Summary

Daily Weather History Graph

Daily Weather History Graph

Search for Another Location

Airport or City:

Astronomy

May. 06, 2019 Rise Set
Actual Time 6:16 AM EDT 8:18 PM EDT
Civil Twilight 5:47 AM EDT 8:48 PM EDT
Nautical Twilight 5:11 AM EDT 9:24 PM EDT
Astronomical Twilight 4:32 AM EDT 10:03 PM EDT
Moon 7:38 AM EDT (5/6) 10:14 PM EDT (5/6)
Length of Visible Light 15h 01m
Length of Day
14h 02m
Waxing Crescent, 3% of the Moon is Illuminated
May 6
Waxing Crescent
May 11
First Quarter
May 18
Full
May 26
Last Quarter
Jun 3
New

Hourly Weather History & Observations

Time (EDT) Temp. Dew Point Humidity Pressure Visibility Wind Dir Wind Speed Gust Speed Precip Events Conditions
12:53 AM 57.9 °F 55.0 °F 90% 29.90 in 6.0 mi Calm Calm - N/A   Overcast
1:39 AM 57.9 °F 54.0 °F 87% 29.93 in 2.0 mi Calm Calm - N/A   Overcast
1:53 AM 57.0 °F 54.0 °F 89% 29.91 in 0.8 mi Calm Calm - N/A   Mostly Cloudy
2:06 AM 57.0 °F 54.0 °F 89% 29.93 in 1.8 mi Calm Calm - N/A   Mostly Cloudy
2:23 AM 57.0 °F 54.0 °F 89% 29.93 in 0.5 mi Calm Calm - N/A Fog Fog
2:31 AM 55.0 °F 53.1 °F 93% 29.93 in 0.5 mi Calm Calm - N/A Fog Fog
2:53 AM 55.0 °F 53.1 °F 93% 29.91 in 0.2 mi Calm Calm - N/A Fog Fog
3:20 AM 54.0 °F 51.1 °F 90% 29.94 in 0.2 mi Calm Calm - N/A Fog Fog
3:53 AM 53.1 °F 51.1 °F 93% 29.93 in 0.2 mi Calm Calm - N/A Fog Fog
4:06 AM 52.0 °F 50.0 °F 93% 29.95 in 0.2 mi Calm Calm - N/A Fog Fog
4:22 AM 52.0 °F 48.9 °F 89% 29.96 in 0.2 mi Calm Calm - N/A Fog Fog
4:53 AM 52.0 °F 50.0 °F 93% 29.95 in 0.2 mi Calm Calm - N/A Fog Fog
5:02 AM 50.0 °F 48.0 °F 93% 29.97 in 0.2 mi Calm Calm - N/A Fog Fog
5:53 AM 51.1 °F 48.9 °F 92% 29.97 in 0.5 mi Calm Calm - N/A Fog Fog
6:48 AM 50.0 °F 48.2 °F 94% 30.00 in 0.2 mi Calm Calm - N/A Fog Fog
6:53 AM 50.0 °F 48.0 °F 93% 29.99 in 0.2 mi Calm Calm - N/A Fog Fog
7:17 AM 52.0 °F 50.0 °F 93% 30.01 in 0.8 mi Calm Calm - N/A   Mostly Cloudy
7:29 AM 53.1 °F 51.1 °F 93% 30.02 in 3.0 mi Calm Calm - N/A   Scattered Clouds
7:53 AM 54.0 °F 51.1 °F 90% 30.01 in 8.0 mi Calm Calm - N/A   Clear
8:24 AM 55.9 °F 53.1 °F 90% 30.05 in 2.0 mi SW 3.5 mph - N/A Fog Patches of Fog
8:36 AM 55.9 °F 53.1 °F 90% 30.07 in 2.0 mi SW 5.8 mph - N/A Fog Patches of Fog
8:53 AM 55.9 °F 53.1 °F 90% 30.05 in 1.8 mi SW 3.5 mph - N/A   Overcast
8:59 AM 55.9 °F 53.1 °F 90% 30.07 in 3.0 mi SSW 4.6 mph - N/A   Overcast
9:32 AM 57.9 °F 53.1 °F 84% 30.08 in 10.0 mi Calm Calm - N/A   Mostly Cloudy
9:53 AM 61.0 °F 53.1 °F 75% 30.06 in 10.0 mi Variable 3.5 mph - N/A   Partly Cloudy
10:53 AM 66.0 °F 52.0 °F 60% 30.06 in 10.0 mi WNW 5.8 mph - N/A   Clear
11:53 AM 66.9 °F 46.9 °F 49% 30.05 in 10.0 mi North 5.8 mph - N/A   Partly Cloudy
12:53 PM 69.1 °F 46.0 °F 44% 30.04 in 10.0 mi ENE 5.8 mph - N/A   Partly Cloudy
1:53 PM 72.0 °F 46.0 °F 40% 30.04 in 10.0 mi Calm Calm - N/A   Clear
2:53 PM 72.0 °F 45.0 °F 38% 30.03 in 10.0 mi NE 3.5 mph - N/A   Clear
3:53 PM 73.9 °F 44.1 °F 34% 30.02 in 10.0 mi WNW 5.8 mph - N/A   Clear
4:53 PM 73.9 °F 42.1 °F 32% 30.02 in 10.0 mi Calm Calm - N/A   Clear
5:53 PM 73.0 °F 44.1 °F 35% 30.03 in 10.0 mi ENE 3.5 mph - N/A   Clear
6:53 PM 73.9 °F 43.0 °F 33% 30.04 in 10.0 mi Calm Calm - N/A   Clear
7:53 PM 71.1 °F 45.0 °F 39% 30.04 in 10.0 mi SW 4.6 mph - N/A   Clear
8:53 PM 66.0 °F 48.0 °F 52% 30.06 in 10.0 mi SSE 3.5 mph - N/A   Clear
9:53 PM 60.1 °F 48.0 °F 64% 30.09 in 10.0 mi Calm Calm - N/A   Clear
10:53 PM 59.0 °F 48.9 °F 69% 30.09 in 10.0 mi Calm Calm - N/A   Clear
11:53 PM 57.0 °F 50.0 °F 77% 30.10 in 10.0 mi Calm Calm - N/A   Clear